Time,TemperatureF,DewpointF,PressureIn,WindDirection,WindDirectionDegrees,WindSpeedMPH,WindSpeedGustMPH,Humidity,HourlyPrecipIn,Conditions,Clouds,dailyrainin,SoftwareType,DateUTC
2013-09-15 00:02:00,60.1,45.3,29.87,East,90,0.0,2.0,58,0.00,,,-99.99,WeatherLink 5.7,2013-09-15 05:02:00,
2013-09-15 00:17:00,59.9,45.1,29.86,SE,135,0.0,1.0,58,0.00,,,-99.99,WeatherLink 5.7,2013-09-15 05:17:00,
2013-09-15 00:31:00,59.9,45.5,29.87,SE,135,0.0,1.0,59,0.00,,,-99.99,WeatherLink 5.7,2013-09-15 05:31:00,
2013-09-15 00:46:00,59.6,45.7,29.87,North,-999,0.0,0.0,60,0.00,,,-99.99,WeatherLink 5.7,2013-09-15 05:46:00,
2013-09-15 01:01:00,59.0,46.0,29.87,North,-999,0.0,0.0,62,0.00,,,-99.99,WeatherLink 5.7,2013-09-15 06:01:00,
2013-09-15 01:16:00,58.4,46.3,29.86,North,-999,0.0,0.0,64,0.00,,,-99.99,WeatherLink 5.7,2013-09-15 06:16:00,
2013-09-15 01:32:00,58.0,46.3,29.87,North,-999,0.0,0.0,65,0.00,,,-99.99,WeatherLink 5.7,2013-09-15 06:32:00,
2013-09-15 01:47:00,57.6,47.1,29.86,North,-999,0.0,0.0,68,0.00,,,-99.99,WeatherLink 5.7,2013-09-15 06:47:00,
2013-09-15 02:02:00,57.0,47.7,29.86,North,-999,0.0,0.0,71,0.00,,,-99.99,WeatherLink 5.7,2013-09-15 07:02:00,
2013-09-15 02:17:00,56.6,47.3,29.86,North,-999,0.0,0.0,71,0.00,,,-99.99,WeatherLink 5.7,2013-09-15 07:17:00,
2013-09-15 02:32:00,56.6,47.3,29.86,North,-999,0.0,0.0,71,0.00,,,-99.99,WeatherLink 5.7,2013-09-15 07:32:00,
2013-09-15 02:47:00,56.9,47.6,29.88,SE,135,0.0,1.0,71,0.00,,,-99.99,WeatherLink 5.7,2013-09-15 07:47:00,
2013-09-15 03:02:00,56.9,47.2,29.88,North,-999,0.0,0.0,70,0.00,,,-99.99,WeatherLink 5.7,2013-09-15 08:02:00,
2013-09-15 03:17:00,57.0,47.3,29.88,North,-999,0.0,0.0,70,0.00,,,-99.99,WeatherLink 5.7,2013-09-15 08:17:00,
2013-09-15 03:32:00,57.0,47.7,29.89,North,-999,0.0,0.0,71,0.00,,,-99.99,WeatherLink 5.7,2013-09-15 08:32:00,
2013-09-15 03:47:00,56.9,48.0,29.89,North,-999,0.0,0.0,72,0.00,,,-99.99,WeatherLink 5.7,2013-09-15 08:47:00,
2013-09-15 04:02:00,56.5,49.0,29.90,North,-999,0.0,0.0,76,0.01,,,-99.99,WeatherLink 5.7,2013-09-15 09:02:00,
2013-09-15 04:17:00,55.9,49.8,29.90,North,-999,0.0,0.0,80,0.01,,,-99.99,WeatherLink 5.7,2013-09-15 09:17:00,
2013-09-15 04:32:00,55.3,50.2,29.90,North,-999,0.0,0.0,83,0.01,,,-99.99,WeatherLink 5.7,2013-09-15 09:32:00,
2013-09-15 04:47:00,54.8,50.4,29.90,North,-999,0.0,0.0,85,0.02,,,-99.99,WeatherLink 5.7,2013-09-15 09:47:00,
2013-09-15 05:01:00,54.5,50.7,29.90,North,-999,0.0,0.0,87,0.03,,,-99.99,WeatherLink 5.7,2013-09-15 10:01:00,
2013-09-15 05:17:00,54.4,50.9,29.91,North,-999,0.0,0.0,88,0.06,,,-99.99,WeatherLink 5.7,2013-09-15 10:17:00,
2013-09-15 05:32:00,54.2,51.3,29.90,North,-999,0.0,0.0,90,0.12,,,-99.99,WeatherLink 5.7,2013-09-15 10:32:00,
2013-09-15 05:47:00,53.8,51.2,29.89,North,-999,0.0,0.0,91,0.12,,,-99.99,WeatherLink 5.7,2013-09-15 10:47:00,
2013-09-15 06:02:00,53.6,51.3,29.88,North,-999,0.0,0.0,92,0.13,,,-99.99,WeatherLink 5.7,2013-09-15 11:02:00,
2013-09-15 06:17:00,53.6,51.6,29.89,ESE,112,0.0,3.0,93,0.11,,,-99.99,WeatherLink 5.7,2013-09-15 11:17:00,
2013-09-15 06:32:00,53.6,51.6,29.88,North,-999,0.0,0.0,93,0.05,,,-99.99,WeatherLink 5.7,2013-09-15 11:32:00,
2013-09-15 06:46:00,53.6,51.9,29.87,North,-999,0.0,0.0,94,0.06,,,-99.99,WeatherLink 5.7,2013-09-15 11:46:00,
2013-09-15 07:02:00,53.5,51.8,29.88,North,-999,0.0,0.0,94,0.08,,,-99.99,WeatherLink 5.7,2013-09-15 12:02:00,
2013-09-15 07:16:00,53.3,51.9,29.89,North,-999,0.0,0.0,95,0.09,,,-99.99,WeatherLink 5.7,2013-09-15 12:16:00,
2013-09-15 07:31:00,53.5,52.1,29.89,North,-999,0.0,0.0,95,0.09,,,-99.99,WeatherLink 5.7,2013-09-15 12:31:00,
2013-09-15 07:47:00,53.3,51.9,29.89,North,-999,0.0,0.0,95,0.10,,,-99.99,WeatherLink 5.7,2013-09-15 12:47:00,
2013-09-15 08:02:00,53.3,52.2,29.88,North,-999,0.0,0.0,96,0.09,,,-99.99,WeatherLink 5.7,2013-09-15 13:02:00,
2013-09-15 08:17:00,53.2,52.1,29.86,North,-999,0.0,0.0,96,0.09,,,-99.99,WeatherLink 5.7,2013-09-15 13:17:00,
2013-09-15 08:32:00,53.3,52.2,29.88,North,-999,0.0,0.0,96,0.13,,,-99.99,WeatherLink 5.7,2013-09-15 13:32:00,
2013-09-15 08:46:00,53.3,52.2,29.87,North,-999,0.0,0.0,96,0.12,,,-99.99,WeatherLink 5.7,2013-09-15 13:46:00,
2013-09-15 09:02:00,53.3,52.2,29.87,North,-999,0.0,0.0,96,0.10,,,-99.99,WeatherLink 5.7,2013-09-15 14:02:00,
2013-09-15 09:17:00,53.3,52.2,29.86,North,-999,0.0,0.0,96,0.13,,,-99.99,WeatherLink 5.7,2013-09-15 14:17:00,
2013-09-15 09:32:00,53.3,52.5,29.86,North,-999,0.0,0.0,97,0.14,,,-99.99,WeatherLink 5.7,2013-09-15 14:32:00,
2013-09-15 09:46:00,53.5,52.7,29.87,North,-999,0.0,0.0,97,0.13,,,-99.99,WeatherLink 5.7,2013-09-15 14:46:00,
2013-09-15 10:02:00,53.5,52.7,29.87,North,-999,0.0,0.0,97,0.13,,,-99.99,WeatherLink 5.7,2013-09-15 15:02:00,
2013-09-15 10:17:00,53.5,52.7,29.87,North,-999,0.0,0.0,97,0.10,,,-99.99,WeatherLink 5.7,2013-09-15 15:17:00,
2013-09-15 10:31:00,53.8,53.0,29.87,North,-999,0.0,0.0,97,0.05,,,-99.99,WeatherLink 5.7,2013-09-15 15:31:00,
2013-09-15 10:46:00,53.6,52.8,29.88,North,-999,0.0,0.0,97,0.04,,,-99.99,WeatherLink 5.7,2013-09-15 15:46:00,
2013-09-15 11:02:00,53.8,53.0,29.87,North,-999,0.0,0.0,97,0.09,,,-99.99,WeatherLink 5.7,2013-09-15 16:02:00,
2013-09-15 11:17:00,53.9,53.1,29.86,North,-999,0.0,0.0,97,0.08,,,-99.99,WeatherLink 5.7,2013-09-15 16:17:00,
2013-09-15 11:32:00,54.1,53.3,29.85,North,-999,0.0,0.0,97,0.08,,,-99.99,WeatherLink 5.7,2013-09-15 16:32:00,
2013-09-15 11:47:00,53.9,53.1,29.86,North,-999,0.0,0.0,97,0.09,,,-99.99,WeatherLink 5.7,2013-09-15 16:47:00,
2013-09-15 12:01:00,54.2,53.6,29.86,North,-999,0.0,0.0,98,0.02,,,-99.99,WeatherLink 5.7,2013-09-15 17:01:00,
2013-09-15 12:17:00,54.1,53.3,29.86,North,-999,0.0,0.0,97,0.01,,,-99.99,WeatherLink 5.7,2013-09-15 17:17:00,
2013-09-15 12:32:00,54.2,53.6,29.87,North,-999,0.0,0.0,98,0.01,,,-99.99,WeatherLink 5.7,2013-09-15 17:32:00,
2013-09-15 12:45:00,54.4,53.8,29.87,North,-999,0.0,0.0,98,0.00,,,-99.99,WeatherLink 5.7,2013-09-15 17:45:00,
2013-09-15 13:02:00,54.5,53.9,29.87,North,-999,0.0,0.0,98,0.05,,,-99.99,WeatherLink 5.7,2013-09-15 18:02:00,
2013-09-15 13:17:00,55.1,54.5,29.87,North,-999,0.0,0.0,98,0.06,,,-99.99,WeatherLink 5.7,2013-09-15 18:17:00,
2013-09-15 13:32:00,55.3,54.7,29.86,North,-999,0.0,0.0,98,0.07,,,-99.99,WeatherLink 5.7,2013-09-15 18:32:00,
2013-09-15 13:47:00,55.6,55.0,29.88,North,-999,0.0,0.0,98,0.08,,,-99.99,WeatherLink 5.7,2013-09-15 18:47:00,
2013-09-15 14:02:00,55.6,55.0,29.88,North,-999,0.0,0.0,98,0.03,,,-99.99,WeatherLink 5.7,2013-09-15 19:02:00,
2013-09-15 14:17:00,55.6,55.0,29.89,North,-999,0.0,0.0,98,0.02,,,-99.99,WeatherLink 5.7,2013-09-15 19:17:00,
2013-09-15 14:32:00,55.7,55.1,29.89,North,-999,0.0,0.0,98,0.01,,,-99.99,WeatherLink 5.7,2013-09-15 19:32:00,
2013-09-15 14:46:00,56.0,55.4,29.89,North,-999,0.0,0.0,98,0.00,,,-99.99,WeatherLink 5.7,2013-09-15 19:46:00,
2013-09-15 15:01:00,56.3,55.7,29.89,North,-999,0.0,0.0,98,0.01,,,-99.99,WeatherLink 5.7,2013-09-15 20:01:00,
2013-09-15 15:17:00,56.5,55.9,29.90,North,-999,0.0,0.0,98,0.01,,,-99.99,WeatherLink 5.7,2013-09-15 20:17:00,
2013-09-15 15:32:00,56.6,56.0,29.90,North,-999,0.0,0.0,98,0.01,,,-99.99,WeatherLink 5.7,2013-09-15 20:32:00,
2013-09-15 15:47:00,56.5,55.9,29.90,North,-999,0.0,0.0,98,0.01,,,-99.99,WeatherLink 5.7,2013-09-15 20:47:00,
2013-09-15 16:02:00,56.9,56.3,29.91,North,-999,0.0,0.0,98,0.00,,,-99.99,WeatherLink 5.7,2013-09-15 21:02:00,
2013-09-15 16:18:00,57.0,56.4,29.91,North,-999,0.0,0.0,98,0.00,,,-99.99,WeatherLink 5.7,2013-09-15 21:18:00,
2013-09-15 16:32:00,57.2,56.6,29.92,North,-999,0.0,0.0,98,0.00,,,-99.99,WeatherLink 5.7,2013-09-15 21:32:00,
2013-09-15 16:47:00,57.3,56.7,29.92,North,-999,0.0,0.0,98,0.00,,,-99.99,WeatherLink 5.7,2013-09-15 21:47:00,
2013-09-15 17:02:00,57.3,56.7,29.92,North,-999,0.0,0.0,98,0.00,,,-99.99,WeatherLink 5.7,2013-09-15 22:02:00,
2013-09-15 17:17:00,57.5,56.9,29.93,North,-999,0.0,0.0,98,0.00,,,-99.99,WeatherLink 5.7,2013-09-15 22:17:00,
2013-09-15 17:32:00,57.5,56.9,29.94,North,-999,0.0,0.0,98,0.00,,,-99.99,WeatherLink 5.7,2013-09-15 22:32:00,
2013-09-15 17:47:00,57.5,56.9,29.94,North,-999,0.0,0.0,98,0.00,,,-99.99,WeatherLink 5.7,2013-09-15 22:47:00,
2013-09-15 18:02:00,57.5,56.9,29.95,North,-999,0.0,0.0,98,0.00,,,-99.99,WeatherLink 5.7,2013-09-15 23:02:00,
2013-09-15 18:17:00,57.5,56.9,29.95,North,0,0.0,5.0,98,0.00,,,-99.99,WeatherLink 5.7,2013-09-15 23:17:00,
2013-09-15 18:31:00,57.5,56.9,29.95,North,0,0.0,1.0,98,0.00,,,-99.99,WeatherLink 5.7,2013-09-15 23:31:00,
2013-09-15 18:46:00,57.5,56.9,29.97,North,-999,0.0,0.0,98,0.00,,,-99.99,WeatherLink 5.7,2013-09-15 23:46:00,
2013-09-15 19:02:00,57.3,56.7,29.97,North,0,0.0,1.0,98,0.00,,,-99.99,WeatherLink 5.7,2013-09-16 00:02:00,
2013-09-15 19:17:00,56.9,56.1,29.98,North,-999,0.0,0.0,97,0.00,,,-99.99,WeatherLink 5.7,2013-09-16 00:17:00,
2013-09-15 19:32:00,56.3,55.5,29.99,NW,315,0.0,1.0,97,0.00,,,-99.99,WeatherLink 5.7,2013-09-16 00:32:00,
2013-09-15 19:47:00,55.7,54.9,30.00,North,-999,0.0,0.0,97,0.00,,,-99.99,WeatherLink 5.7,2013-09-16 00:47:00,
2013-09-15 20:02:00,55.1,54.3,30.01,North,-999,0.0,0.0,97,0.00,,,-99.99,WeatherLink 5.7,2013-09-16 01:02:00,
2013-09-15 20:16:00,54.4,53.6,30.02,North,-999,0.0,0.0,97,0.00,,,-99.99,WeatherLink 5.7,2013-09-16 01:16:00,
2013-09-15 20:32:00,53.8,53.0,30.02,North,-999,0.0,0.0,97,0.00,,,-99.99,WeatherLink 5.7,2013-09-16 01:32:00,
2013-09-15 20:47:00,53.5,52.7,30.03,North,-999,0.0,0.0,97,0.00,,,-99.99,WeatherLink 5.7,2013-09-16 01:47:00,
2013-09-15 21:02:00,53.3,52.5,30.04,North,-999,0.0,0.0,97,0.00,,,-99.99,WeatherLink 5.7,2013-09-16 02:02:00,
2013-09-15 21:17:00,53.1,52.3,30.04,North,-999,0.0,0.0,97,0.00,,,-99.99,WeatherLink 5.7,2013-09-16 02:17:00,
2013-09-15 21:32:00,52.8,52.0,30.04,North,-999,0.0,0.0,97,0.00,,,-99.99,WeatherLink 5.7,2013-09-16 02:32:00,
2013-09-15 21:47:00,52.9,52.1,30.05,North,-999,0.0,0.0,97,0.00,,,-99.99,WeatherLink 5.7,2013-09-16 02:47:00,
2013-09-15 22:02:00,52.9,52.1,30.05,North,-999,0.0,0.0,97,0.00,,,-99.99,WeatherLink 5.7,2013-09-16 03:02:00,
2013-09-15 22:16:00,52.9,52.4,30.06,North,-999,0.0,0.0,98,0.00,,,-99.99,WeatherLink 5.7,2013-09-16 03:16:00,
2013-09-15 22:31:00,52.9,52.1,30.06,North,-999,0.0,0.0,97,0.00,,,-99.99,WeatherLink 5.7,2013-09-16 03:31:00,
2013-09-15 22:47:00,53.3,52.8,30.07,North,-999,0.0,0.0,98,0.00,,,-99.99,WeatherLink 5.7,2013-09-16 03:47:00,
2013-09-15 23:02:00,53.5,52.9,30.06,North,-999,0.0,0.0,98,0.00,,,-99.99,WeatherLink 5.7,2013-09-16 04:02:00,
2013-09-15 23:17:00,53.5,52.9,30.07,North,-999,0.0,0.0,98,0.00,,,-99.99,WeatherLink 5.7,2013-09-16 04:17:00,
2013-09-15 23:32:00,53.1,52.6,30.07,North,-999,0.0,0.0,98,0.00,,,-99.99,WeatherLink 5.7,2013-09-16 04:32:00,
2013-09-15 23:47:00,52.9,52.4,30.08,North,-999,0.0,0.0,98,0.00,,,-99.99,WeatherLink 5.7,2013-09-16 04:47:00,